Terminal Aerodrome Forecast
Issued by NWS Des Moines, IA

Home | Current Version | Previous Version | Text Only | Print | Product List | Glossary On
Versions: 1 2 3 4 5 6 7 8 9 10 11 12 13 14 15 16 17 18 19 20 21 22 23 24 25 26 27 28 29 30 31 32 33 34 35 36 37 38 39 40 41 42 43 44 45 46 47 48 49 50
000
FTUS43 KDMX 261459 AAB
TAFDSM
TAF AMD
KDSM 261459Z 2615/2712 33006KT 2SM BR OVC003
     FM261900 32006KT P6SM OVC007
     FM262100 30006KT P6SM OVC010
     FM270500 34004KT 4SM BR OVC007=

USA.gov is the U.S. government's official web portal to all federal, state and local government web resources and services.